AirNav   Air Wisconsin Up To $57,000 Bonus
 
 646 users online  

3H4 Hillsboro Municipal Airport
Hillsboro, North Dakota, USA

GOING TO HILLSBORO?


FAA INFORMATION EFFECTIVE 27 FEBRUARY 2020

Location

FAA Identifier: 3H4
Lat/Long: 47-21-33.8680N 097-03-37.4990W
47-21.564467N 097-03.624983W
47.3594078,-97.0604164
(estimated)
Elevation: 906.1 ft. / 276.2 m (surveyed)
Variation: 05E (2000)
From city: 3 miles S of HILLSBORO, ND
Time zone: UTC -6 (UTC -5 during Daylight Saving Time)
Zip code: 58045

Airport Operations

Airport use: Open to the public
Activation date: 08/1977
Control tower: no
ARTCC: MINNEAPOLIS CENTER
FSS: GRAND FORKS FLIGHT SERVICE STATION
NOTAMs facility: GFK (NOTAM-D service available)
Attendance: MON-FRI 0800-1700
AFT HRS ON CALL 701-400-1113
Wind indicator: yes
Segmented circle: no
Lights: ACTVT PAPI RWYS 16 & 34; MIRL RWY 16/34 - CTAF.

Airport Communications

CTAF: 122.9
FARGO APPROACH: 120.4 [OPR H24 FM 1200Z++MON THRU 0530Z++SAT; SAT AND SUN 1200-0530Z++; CLSD HOL.]
FARGO DEPARTURE: 120.4 [OPR H24 FM 1200Z++MON THRU 0530Z++SAT; SAT AND SUN 1200-0530Z++; CLSD HOL.]

Nearby radio navigation aids

VOR radial/distance  VOR name  Freq  Var
GFKr163/36.1GRAND FORKS VOR/DME114.3009E
FARr338/37.4FARGO VOR/DME116.2009E

 
NDB name  Hdg/Dist  Freq  Var  ID
CROOKSTON209/34.040003ECKN -.-. -.- -.

Airport Services

Fuel available: 100LL
24 HOUR SELF SERVICE CREDIT CARD FUEL AVBL.
Parking: hangars and tiedowns
Airframe service: MAJOR
Powerplant service: MAJOR

Runway Information

Runway 16/34

Dimensions: 3301 x 60 ft. / 1006 x 18 m
Surface: concrete, in good condition
Weight bearing capacity: 
Single wheel: 16.5
Runway edge lights: medium intensity
RUNWAY 16  RUNWAY 34
Latitude: 47-21.832328N47-21.296492N
Longitude: 097-03.689462W097-03.560623W
Elevation: 905.5 ft.905.7 ft.
Traffic pattern: leftleft
Runway heading: 166 magnetic, 171 true346 magnetic, 351 true
Markings: nonprecision, in good conditionnonprecision, in good condition
Visual slope indicator: 2-light PAPI on left (3.00 degrees glide path)2-light PAPI on left (3.00 degrees glide path)
Runway end identifier lights: nono
Touchdown point: yes, no lightsyes, no lights

Airport Ownership and Management from official FAA records

Ownership: Publicly-owned
Owner: HILLSBORO MUNI ARPT AUTH
BOX 242
HILLSBORO, ND 58045
Phone (701) 430-1642
LARRY MUELLER - CHAIRMAN OF THE AIRPORT AUTHORITY
Manager: LARRY MUELLER
BOX 242
HILLSBORO, ND 58045
Phone (701) 430-1642

Airport Operational Statistics

Aircraft based on the field: 23
Single engine airplanes: 23
    
Aircraft operations: avg 58/day *
52% transient general aviation
47% local general aviation
1% air taxi
<1% military
* for 12-month period ending 19 September 2019

Additional Remarks

FOR SNOW REMOVAL OR WINTER CONDS CALL ARPT 701-400-1113 OR 701-430-1642
AERIAL SPRAYING OPNS MAY-AUG INVOF ARPT.
FOR CD CTC FARGO APCH AT 701-235-8894.

Instrument Procedures

NOTE: All procedures below are presented as PDF files. If you need a reader for these files, you should download the free Adobe Reader.

NOT FOR NAVIGATION. Please procure official charts for flight.
FAA instrument procedures published for use from 27 February 2020 at 0901Z to 26 March 2020 at 0900Z.

 
IAPs - Instrument Approach Procedures
RNAV (GPS) RWY 16   download (152KB)
RNAV (GPS) RWY 34   download (160KB)
NOTE: Special Take-Off Minimums/Departure Procedures apply   download (223KB)

Other nearby airports with instrument procedures:

D00 - Norman County Ada/Twin Valley Airport (28 nm E)
KFAR - Hector International Airport (28 nm S)
4V4 - Northwood Municipal Airport-Vince Field (31 nm NW)
5N8 - Casselton Robert Miller Regional Airport (31 nm S)
KCKN - Crookston Municipal Airport Kirkwood Field (34 nm NE)
 
Loc | Ops | Rwys | IFR | FBO | Links
Com | Nav | Svcs | Stats | Notes

Bismarck Aero Center
AirBoss

 
Area around 3H4 (Hillsboro Municipal Airport)
 
Road maps at: MapQuest Bing Google
 
Aerial photo
WARNING: Photo may not be current or correct
Aerial photo of 3H4 (Hillsboro Municipal Airport)
Do you have a better or more recent aerial photo of Hillsboro Municipal Airport that you would like to share? If so, please send us your photo.

 
Sectional chart

 
Airport distance calculator
Flying to Hillsboro Municipal Airport? Find the distance to fly.

From to 3H4

Sunrise and sunset
Times for 28-Feb-2020
 Local
(UTC-6)
 Zulu
(UTC)
Morning civil twilight06:4112:41
Sunrise07:1113:11
Sunset18:1000:10
Evening civil twilight18:4100:41

Current date and time
Zulu (UTC)  28-Feb-2020 06:36:51
Local (UTC-6)  28-Feb-2020 00:36:51
 
METAR
KFAR 
27nm S 
280553Z 06004KT 10SM OVC016 M10/M13 A3010 RMK AO2 SLP210 60000 T11001128 11089 21106 410831172 55001
KCKN 
34nm NE 
280615Z AUTO 00000KT 10SM -SN OVC047 M11/M13 A3012 RMK AO2
KJKJ 
35nm SE 
280616Z AUTO 03003KT 10SM SCT018 M09/M13 A3010 RMK AO2
KGFK 
36nm N 
280553Z AUTO 00000KT 10SM OVC037 M14/M16 A3012 RMK AO2 SNE40 SLP221 4/012 P0000 60000 T11441161 11106 21150 411001211 53003
KRDR 
39nm N 
280605Z AUTO 00000KT 10SM -SN FEW008 SCT012 OVC023 M15/M17 A3011 RMK AO2 SNB05 SLP224 $
KS32 
43nm W 
280615Z AUTO 00000KT 8SM SCT004 BKN011 M09/M09 A3005 RMK AO2
KBAC 
46nm SW 
280615Z AUTO 00000KT 10SM OVC008 M09/M09 A3006 RMK AO2
K3N8 
46nm E 
280616Z AUTO 02004KT 10SM SCT060 BKN070 M12/M15 A3007 RMK AO2 T11251153
TAF
KFAR 
27nm S 
280520Z 2806/2906 VRB03KT P6SM BKN016 FM281500 VRB03KT P6SM BKN040 FM290400 18007KT P6SM BKN030
NOTAMs
Click for the latest NOTAMs
NOTAMs are issued by the DoD/FAA and will open in a separate window not controlled by AirNav.

 

 
 

FBO, Fuel Providers, and Aircraft Ground Support

  
 Business Name 
 
 Contact 
 
 Services / Description 
 
Fuel Prices
 
Comments
  
On-Site Aviation, Inc. 701-400-1113
no information available

If you are affiliated with On-Site Aviation, Inc. and would like to show here your services, contact info, web link, logo, and more, click here
100LL
SS $4.45 
 Updated 26-Feb-2020
 
   write
SS=Self service
Update Fuel Prices
 

Would you like to see your business listed on this page?

 If your business provides an interesting product or service to pilots, flight crews, aircraft, or users of the Hillsboro Municipal Airport, you should consider listing it here.  To start the listing process, click on the button below
 
Add a business
 

Other Pages about Hillsboro Municipal Airport

www.rrv.net/airport
 
Update a link
 
Copyright © AirNav, LLC. All rights reserved. Privacy Policy  Contact